Погода в Джалинде

Погода в Джалинде : погода сейчас, прогноз погоды и архив. Всё, что Вы хотите узнать о погоде в Джалинде!

Поиск расширенной информации на нашем сайте:

Другие новости

Новости СМИ2

Главная страница сайта

Новости сайта

03.07.2017

Напоминаем, что на нашем специализированном сайте Метеоцентр.Азия вы можете получить высокодетализированные автоматические прогнозы погоды по пунктам России, СНГ и мира в авиационном формате (включающие направление и скорость ветра, видимость, явления погоды, количество и форму облачности, нижнюю и верхнюю границу облачности).

Рекомендуем: Бит авто запчасти маз konnor-auto.ru.

Погода в Джалинде - сегодня

Время (UTC), дата Ветер
(°,м/с) 
Видим.   Явления Облачность Т
(°С)
Тd
(°С)
f(%) Тe
(°С)
Pmin
(гПа)
dP
(гПа)
Po
(мм)
O2
(г/м3)
Тmin Tmax R s Состояние
почвы
21 15.10.17 120 (ЮВ) 20000 м    3/0 верхняя 
[Ci]
-5.7 -7.3 88 -5  1022.7  -0.6  742  306           
00 16.10.17 160 (Ю) 20000 м    9/0 средняя 
[Ac As]
-4.3 -5.9 89 -4  1023  0.5  742  304  -6.6        замёрзшая 
03 16.10.17 320 (СЗ) 20000 м    10/6 600 м средняя, верхняя 
[Sc|Ac trans|Ci]
+1.2 -5.2 62 +1  1022.5  0.2  742  298           
06 16.10.17 330 (СЗ) 4000 м  слаб. ливневой снег  10/10 600 м кучево-дожд. 
[Cb cap]
+2 -4 64 1023.6  1.1  743  298           
09 16.10.17 330 (СЗ) 20000 м  {ливн. осадки}  8/4 600 м кучево-дожд., верхняя 
[Cb cap|Ci]
-1.8 -4.6 81 -3  1027.4  3.2  745  303           
12 16.10.17 320 (СЗ) 20000 м  {ливн. осадки}  5/0 средняя, верхняя 
[Ac lent|Ci]
-1.4 -6 71 -4  1029.5  2.1  747  303    +2.3  0.4     
15 16.10.17 320 (СЗ) 20000 м    3/0 верхняя 
[Ci]
-4.4 -11.9 56 -7  1032  748  308           
18 16.10.17 340 (С) 20000 м    ясно 
-9.6 -12.8 77 -9  1034  1.2  749  314           
21 16.10.17 290 (З) 20000 м    ясно 
-13 -14.5 88 -13  1035.3  0.8  750  319           
00 17.10.17 350 (С) 20000 м    ясно 
-9.4 -12.4 79 -9  1035.4  0.6  750  314  -13.8        замёрзшая 
03 17.10.17 330 (СЗ) 20000 м    3/0 средняя 
[Ac trans]
-1.2 -12.4 42 -4  1032.8  -1.4  749  304           
06 17.10.17 310 (СЗ) 20000 м    4/1 600 м средняя 
[Cu hum|Ac lent]
+0.8 -12.6 36 1030.2  -2.3  748  301           
09 17.10.17 тихо ()   20000 м    ясно 
-2.6 -12 48 -3  1028.7  -1.8  746  305           
12 17.10.17 тихо ()   20000 м    ясно 
-7.9 -12 72 -8  1028.6  -0.7  746  311    +1.6       
15 17.10.17 тихо ()   20000 м    4/0 средняя 
[Ac trans]
-8.7 -10.8 85 -9  1028  -0.7  745  311           
18 17.10.17 тихо ()   20000 м    3/0 средняя 
[Ac As]
-6.6 -8.9 84 -7  1025.6  -2.1  744  308           
21 17.10.17 150 (ЮВ) 20000 м    8/0 средняя 
[Ac As]
-4.2 -10.5 61 -4  1023.8  -1.4  743  305           
00 18.10.17 130 (ЮВ) 4000 м  слаб. снег  10/0 средняя 
[As op]
-4 -8.5 71 -5  1023.7  -0.2  742  304  -9.4    0.0    замёрзшая 
03 18.10.17 100 (В) 20000 м  {снег}  10/1 1000 м средняя, верхняя 
[Sc|Ac trans|Cs]
+0.6 -7.7 54 +1  1021.7  -1.3  741  299           
06 18.10.17 070 (В) 20000 м  {снег}  10/0 средняя, верхняя 
[As trans|Ci]
+1.6 -7.8 50 +2  1020.6  -0.9  741  297           
09 18.10.17 110 (В) 20000 м    10/0 средняя, верхняя 
[As trans|Ci]
-0.5 -6.2 65 1021.7  0.8  741  300           
12 18.10.17 150 (ЮВ) 20000 м    ясно 
-3.7 -5.7 86 -3  1022.3  0.2  741  303    +1.7  0.0     
15 18.10.17 тихо ()   20000 м    4/0 верхняя 
[Ci]
-7.5 -8.2 95 -8  1022.9  741  308           
18 18.10.17 тихо ()   4000 м  слаб. снег  10/0 средняя 
[As op]
-6.2 -7.2 93 -6  1022.4  -0.2  741  306           
21 18.10.17 140 (ЮВ) 20000 м    9/0 средняя 
[Ac As]
-6.2 -7 94 -6  1021.5  -0.9  741  306           
Время (UTC), дата Ветер
(°,м/с) 
Видим.   Явления Облачность Т
(°С)
Тd
(°С)
f(%) Тe
(°С)
Pmin
(гПа)
dP
(гПа)
Po
(мм)
O2
(г/м3)
Тmin Tmax R s Состояние
почвы

Для получения пояснительной информации подведите курсор к названию столбца.

ПОГОДА в Джалинде - архив

Всё, что Вы хотите узнать о погоде в Джалинде - удобно и подробно!

Выберите нужную дату (начиная с 1 января 2015* года) и нажмите кнопку "Найти".
Будут отображены архивные сводки погоды по пункту Джалинда, начиная с указанной даты.


Отображать данные в формате CSV (для использования в таблицах Excel)


Внимание! Наш архив погоды предназначен исключительно для личного некоммерческого использования в познавательных целях. Если Вам необходимы официальные справки о состоянии погоды (для производственных, юридических, коммерческих и т.п. целей), обращайтесь в органы Росгидромета.

*Примечание: данная дата относится к архиву по метеостанциям СССР (Россия, СНГ, Балтия).
Архив по метеостанциям Зарубежной Европы и Азии (кроме Китая) хранится 10 дней, по другим регионам земного шара (Китай, Африка, Америка, Австралия, Океания) - 1 день.

Джалинда - район местоположения метеостанции


Название, широта, долгота, высота метеостанции:
Джалинда 53.5°ш. 123.9°д. 266 м над ур. моря [Российская Федерация]

Дополнительная информация

В oтличие oт бoльшинства пoгoдных сайтoв мы публикуем пoдрoбную метеoинфoрмацию в детальнoм прoфессиoнальнoм фoрмате.

Характеристики температуры и влажнoсти вoздуха измеряются на высoте 2 м в тени вдали oт зданий и деревьев.
Скoрoсть ветра измеряется на высoте 10 м (на урoвне рoста челoвека скoрoсть ветра ниже в 1.5-2 раза). Если метеoстанция нахoдится в гoрoде или в лесу, тo скoрoсть ветра занижена на 2-4 м/с пo сравнению с oткрытым местoм. Скoрoсть ветра над акватoриями крупных рек и oзёр, а также на вершинах хoлмoв на 2-5 м/с выше, чем в oбычных услoвиях.
Атмoсфернoе давление в разных тoчках местнoсти мoжет значительнo oтличаться oт давления на метеoстанции, в зависимoсти oт услoвий рельефа (при пoдъёме на 10 м давление пoнижается примернo на 1 мм рт.ст.).